Stündliche Wetter Cechyny

Heute, 31 Oktober, Samstag

Zeit Temperatur Niederschläge Wind Luftdruck Luftfeuchtigkeit
00:00 +6°C° 0 mm 0 m/S 746 mmHg 93%
01:00 +6°C° 0 mm 0 m/S 746 mmHg 93%
02:00 +6°C° 0 mm 0 m/S 746 mmHg 93%
03:00 +5°C° 0 mm 0 m/S 746 mmHg 92%
04:00 +5°C° 0 mm 0 m/S 747 mmHg 92%
05:00 +5°C° 0 mm 0 m/S 747 mmHg 91%
06:00 +6°C° 0 mm 1 m/S 747 mmHg 91%
07:00 +6°C° 0 mm 1 m/S 748 mmHg 90%
08:00 +7°C° 0 mm 1 m/S 748 mmHg 85%
09:00 +8°C° 0 mm 1 m/S 748 mmHg 79%
10:00 +10°C° 0 mm 1 m/S 749 mmHg 74%
11:00 +10°C° 0 mm 1 m/S 749 mmHg 71%
12:00 +10°C° 0 mm 2 m/S 749 mmHg 68%
13:00 +12°C° 0 mm 2 m/S 749 mmHg 65%
14:00 +10°C° 0 mm 2 m/S 749 mmHg 69%
15:00 +10°C° 0 mm 2 m/S 749 mmHg 73%
16:00 +9°C° 0 mm 2 m/S 749 mmHg 77%
17:00 +8°C° 0 mm 2 m/S 749 mmHg 79%
18:00 +8°C° 0 mm 2 m/S 749 mmHg 82%
19:00 +7°C° 0 mm 3 m/S 749 mmHg 84%
20:00 +7°C° 0 mm 3 m/S 749 mmHg 85%
21:00 +7°C° 0 mm 3 m/S 748 mmHg 87%
22:00 +5°C° 0 mm 3 m/S 748 mmHg 88%
23:00 +5°C° 0 mm 3 m/S 748 mmHg 88%

Morgen, 1 November, Sonntag

Zeit Temperatur Niederschläge Wind Luftdruck Luftfeuchtigkeit
00:00 +5°C° 0 mm 4 m/S 748 mmHg 89%
01:00 +5°C° 0 mm 4 m/S 748 mmHg 90%
02:00 +5°C° 0 mm 4 m/S 748 mmHg 90%
03:00 +5°C° 0 mm 4 m/S 747 mmHg 90%
04:00 +5°C° 0 mm 4 m/S 747 mmHg 90%
05:00 +5°C° 0 mm 5 m/S 747 mmHg 88%
06:00 +5°C° 0 mm 5 m/S 746 mmHg 86%
07:00 +5°C° 0 mm 5 m/S 746 mmHg 84%
08:00 +6°C° 0 mm 5 m/S 746 mmHg 80%
09:00 +7°C° 0 mm 6 m/S 746 mmHg 75%
10:00 +8°C° 0 mm 6 m/S 745 mmHg 71%
11:00 +8°C° 0 mm 6 m/S 745 mmHg 70%
12:00 +9°C° 0 mm 6 m/S 744 mmHg 70%
13:00 +9°C° 0 mm 6 m/S 744 mmHg 69%
14:00 +9°C° 0.1 mm 6 m/S 743 mmHg 73%
15:00 +9°C° 0.1 mm 6 m/S 743 mmHg 76%
16:00 +8°C° 0.1 mm 6 m/S 742 mmHg 80%
17:00 +9°C° 1.1 mm 5 m/S 742 mmHg 84%
18:00 +9°C° 1.1 mm 5 m/S 741 mmHg 88%
19:00 +9°C° 1.1 mm 5 m/S 741 mmHg 93%
20:00 +9°C° 0.1 mm 5 m/S 741 mmHg 93%
21:00 +9°C° 0.1 mm 5 m/S 741 mmHg 93%
22:00 +10°C° 0.1 mm 5 m/S 740 mmHg 94%
23:00 +10°C° 0 mm 5 m/S 740 mmHg 92%

übermorgen, 2 November, Montag

Zeit Temperatur Niederschläge Wind Luftdruck Luftfeuchtigkeit
00:00 +10°C° 0 mm 5 m/S 740 mmHg 91%
01:00 +10°C° 0 mm 5 m/S 740 mmHg 90%
02:00 +10°C° 0.2 mm 5 m/S 740 mmHg 91%
03:00 +11°C° 0.2 mm 4 m/S 740 mmHg 92%
04:00 +11°C° 0.2 mm 4 m/S 740 mmHg 93%
05:00 +11°C° 0 mm 3 m/S 740 mmHg 92%
06:00 +11°C° 0 mm 3 m/S 740 mmHg 92%
07:00 +10°C° 0 mm 2 m/S 740 mmHg 91%
08:00 +10°C° 0 mm 2 m/S 740 mmHg 89%
09:00 +11°C° 0 mm 3 m/S 741 mmHg 87%
10:00 +11°C° 0 mm 3 m/S 741 mmHg 85%
11:00 +11°C° 0.1 mm 3 m/S 741 mmHg 87%
12:00 +12°C° 0.1 mm 4 m/S 740 mmHg 88%
13:00 +12°C° 0.1 mm 4 m/S 740 mmHg 90%
14:00 +12°C° 0.1 mm 4 m/S 740 mmHg 91%
15:00 +13°C° 0.1 mm 4 m/S 740 mmHg 93%
16:00 +13°C° 0.1 mm 4 m/S 740 mmHg 95%
17:00 +13°C° 0 mm 4 m/S 740 mmHg 95%
18:00 +13°C° 0 mm 4 m/S 740 mmHg 94%
19:00 +14°C° 0 mm 4 m/S 740 mmHg 94%
20:00 +14°C° 0 mm 4 m/S 740 mmHg 93%
21:00 +14°C° 0 mm 4 m/S 740 mmHg 92%
22:00 +14°C° 0 mm 4 m/S 740 mmHg 91%
23:00 +14°C° 0.1 mm 4 m/S 740 mmHg 90%

3 November, Dienstag

Zeit Temperatur Niederschläge Wind Luftdruck Luftfeuchtigkeit
00:00 +14°C° 0.1 mm 4 m/S 740 mmHg 89%
01:00 +14°C° 0.1 mm 4 m/S 741 mmHg 88%
02:00 +14°C° 0.1 mm 4 m/S 741 mmHg 88%
03:00 +14°C° 0.1 mm 4 m/S 741 mmHg 88%
04:00 +13°C° 0.1 mm 4 m/S 742 mmHg 89%
05:00 +13°C° 0.1 mm 4 m/S 742 mmHg 85%
06:00 +12°C° 0.1 mm 4 m/S 743 mmHg 81%
07:00 +11°C° 0.1 mm 4 m/S 743 mmHg 78%
08:00 +10°C° 0 mm 5 m/S 744 mmHg 74%
09:00 +10°C° 0 mm 5 m/S 745 mmHg 70%
10:00 +10°C° 0 mm 6 m/S 745 mmHg 66%
11:00 +10°C° 0 mm 6 m/S 746 mmHg 63%
12:00 +10°C° 0 mm 6 m/S 746 mmHg 60%
13:00 +10°C° 0 mm 6 m/S 747 mmHg 57%
14:00 +9°C° 0 mm 5 m/S 747 mmHg 60%
15:00 +8°C° 0 mm 4 m/S 747 mmHg 63%
16:00 +9°C° 0 mm 3 m/S 748 mmHg 65%
17:00 +8°C° 0 mm 3 m/S 748 mmHg 68%
18:00 +8°C° 0 mm 3 m/S 748 mmHg 71%
19:00 +7°C° 0 mm 3 m/S 748 mmHg 73%
20:00 +7°C° 0 mm 3 m/S 749 mmHg 74%
21:00 +7°C° 0 mm 3 m/S 749 mmHg 74%
22:00 +7°C° 0 mm 3 m/S 749 mmHg 75%
23:00 +5°C° 0 mm 3 m/S 749 mmHg 76%

4 November, Mittwoch

Zeit Temperatur Niederschläge Wind Luftdruck Luftfeuchtigkeit
00:00 +6°C° 0 mm 2 m/S 749 mmHg 76%
01:00 +6°C° 0 mm 2 m/S 749 mmHg 77%
02:00 +6°C° 0 mm 2 m/S 749 mmHg 77%
03:00 +6°C° 0 mm 2 m/S 749 mmHg 78%
04:00 +6°C° 0 mm 2 m/S 750 mmHg 78%
05:00 +6°C° 0 mm 2 m/S 750 mmHg 78%
06:00 +6°C° 0 mm 2 m/S 750 mmHg 78%
07:00 +5°C° 0 mm 3 m/S 751 mmHg 78%
08:00 +7°C° 0 mm 3 m/S 751 mmHg 75%
09:00 +7°C° 0 mm 3 m/S 751 mmHg 72%
10:00 +8°C° 0 mm 3 m/S 751 mmHg 70%
11:00 +7°C° 0 mm 4 m/S 752 mmHg 68%
12:00 +8°C° 0 mm 4 m/S 752 mmHg 66%
13:00 +8°C° 0 mm 4 m/S 752 mmHg 65%
14:00 +9°C° 0.1 mm 3 m/S 752 mmHg 68%
15:00 +8°C° 0.1 mm 3 m/S 753 mmHg 71%
16:00 +7°C° 0.1 mm 2 m/S 753 mmHg 74%
17:00 +7°C° 0 mm 2 m/S 753 mmHg 78%
18:00 +6°C° 0 mm 2 m/S 754 mmHg 83%
19:00 +5°C° 0 mm 2 m/S 754 mmHg 87%
20:00 +5°C° 0 mm 2 m/S 755 mmHg 88%
21:00 +5°C° 0 mm 2 m/S 755 mmHg 90%
22:00 +5°C° 0 mm 2 m/S 755 mmHg 91%
23:00 +5°C° 0 mm 2 m/S 756 mmHg 92%

5 November, Donnerstag

Zeit Temperatur Niederschläge Wind Luftdruck Luftfeuchtigkeit
00:00 +4°C° 0 mm 2 m/S 756 mmHg 93%
01:00 +4°C° 0 mm 2 m/S 756 mmHg 94%
02:00 +5°C° 0 mm 1 m/S 757 mmHg 94%
03:00 +5°C° 0 mm 1 m/S 757 mmHg 94%
04:00 +5°C° 0 mm 1 m/S 757 mmHg 94%
05:00 +5°C° 0 mm 1 m/S 758 mmHg 94%
06:00 +5°C° 0 mm 1 m/S 758 mmHg 94%
07:00 +5°C° 0 mm 1 m/S 758 mmHg 94%
08:00 +6°C° 0 mm 1 m/S 759 mmHg 90%
09:00 +7°C° 0 mm 1 m/S 759 mmHg 86%
10:00 +8°C° 0 mm 1 m/S 759 mmHg 83%
11:00 +9°C° 0 mm 1 m/S 760 mmHg 80%
12:00 +8°C° 0 mm 2 m/S 760 mmHg 77%
13:00 +9°C° 0 mm 2 m/S 760 mmHg 74%
14:00 +8°C° 0 mm 2 m/S 760 mmHg 77%
15:00 +9°C° 0 mm 1 m/S 760 mmHg 81%
16:00 +8°C° 0 mm 1 m/S 760 mmHg 85%
17:00 +8°C° 0 mm 1 m/S 760 mmHg 88%
18:00 +7°C° 0 mm 1 m/S 760 mmHg 91%
19:00 +6°C° 0 mm 1 m/S 760 mmHg 93%
20:00 +6°C° 0 mm 1 m/S 760 mmHg 94%
21:00 +5°C° 0 mm 2 m/S 760 mmHg 95%
22:00 +5°C° 0 mm 2 m/S 760 mmHg 95%
23:00 +4°C° 0 mm 2 m/S 760 mmHg 95%
Mehr zeigen